Regional Weather Roundup
Issued by NWS

Home | Current Version | Previous Version | Text Only | Print | Product List | Glossary Off
Versions: 1 2 3 4 5 6 7 8 9 10 11 12 13 14 15 16 17 18 19 20 21 22 23 24 25 26 27 28 29 30 31 32 33 34 35 36 37 38 39 40 41 42 43 44 45 46 47 48 49 50

000
ASUS44 KMEG 260110
RWRTN
TENNESSEE HOURLY STATE WEATHER ROUNDUP
NATIONAL WEATHER SERVICE MEMPHIS TN
800 PM CDT FRI MAY 25 2018

TNZ002-004-019-021-049-052-054-088>092-260200-
WEST TENNESSEE

CITY           SKY/WX    TMP DP  RH WIND       PRES   REMARKS
MEMPHIS INTL   MOCLDY    78  70  76 SE9       29.90R
NWS MEMPHIS      N/A     73 N/A N/A MISG        N/A
JACKSON        TSTM      73  71  93 SW7       29.91S
DYERSBURG      FAIR      72  69  90 S5        29.89R
SOMERVILLE       N/A     72  70  94 CALM      29.90R FOG
COVINGTON      CLEAR     73  70  88 S5        29.89F
UNION CITY     PTCLDY    72  72 100 S7        29.87S
BOLIVAR        CLOUDY    70  70 100 CALM      29.91F FOG
PARIS          CLEAR     73  72  94 SE3       29.89F
HUNTINGDON     CLEAR     73  72  94 S5        29.89S
LEXINGTON      CLOUDY    73  72  94 CALM      29.91S
SELMER         CLOUDY    75  72  88 E5        29.90F
SAVANNAH       CLOUDY    75  73  94 SE6       29.91S FOG
$$

TNZ008-025-027-028-033-062-065-066-260200-
NORTH MIDDLE TENNESSEE

CITY           SKY/WX    TMP DP  RH WIND       PRES   REMARKS
NASHVILLE      CLOUDY    77  66  68 CALM      29.93R
DICKSON        MOCLDY    73  70  88 VRB5      29.92S
PORTLAND       CLEAR     77  68  73 CALM      29.92R
CLARKSVILLE    FAIR      74  69  85 CALM      29.90S
SMYRNA         FAIR      74  71  91 CALM      29.94R
MURFREESBORO   CLEAR     73  70  88 CALM      29.93R
COOKEVILLE     CLEAR     73  64  73 SW7       29.95R
LIVINGSTON     CLEAR     77  66  69 SW5       29.94R
CROSSVILLE     FAIR      73  64  73 SW3       30.00R
ROCKWOOD       CLEAR     73  68  83 SW5       29.98R
$$

TNZ061-075-076-078-094-096-097-260200-
SOUTH MIDDLE TENNESSEE

CITY           SKY/WX    TMP DP  RH WIND       PRES   REMARKS
LEWISBURG      MOCLDY    73  68  83 S8        29.95R
FAYETTEVILLE   CLOUDY    70  70 100 SW7       29.97R
TULLAHOMA      PTCLDY    73  66  78 CALM      29.96R
WINCHESTER     PTCLDY    75  68  78 W10       29.96R
MCMINNVILLE    PTCLDY    72  66  83 CALM      29.96R
COLUMBIA       CLEAR     73  73 100 CALM      29.93R
SHELBYVILLE    CLOUDY    73  68  83 SE3       29.95R
$$

TNZ017-018-042-046-047-260200-
NORTHEAST TENNESSEE

CITY           SKY/WX    TMP DP  RH WIND       PRES   REMARKS
TRI CITIES     FAIR      76  64  66 S3        29.98R
ELIZABETHTON   CLOUDY    73  63  68 E5        29.99S
GREENEVILLE    CLEAR     73  64  73 SW6       29.99R
$$

TNZ012-013-036-069-073-074-260200-
CENTRAL EAST TENNESSEE

CITY           SKY/WX    TMP DP  RH WIND       PRES   REMARKS
KNOXVILLE      CLOUDY    79  67  66 SW5       29.94R
OAK RIDGE      FAIR      76  71  85 VRB3      29.96R
DOWNTOWN KNOXV CLEAR     73  70  88 CALM      29.94R
GATLINBURG     PTCLDY    75  70  83 CALM      29.95R
MORRISTOWN     CLEAR     77  68  73 CALM      29.97R
JACKSBORO      MOCLDY    77  64  65 CALM      29.98R
$$

TNZ083-085-099-260200-
SOUTHEAST TENNESSEE

CITY           SKY/WX    TMP DP  RH WIND       PRES   REMARKS
CHATTANOOGA    MOCLDY    82  65  56 CALM      29.94R
DAYTON         PTCLDY    79  73  83 SE10      29.94R
$$

SKY/WX REPORTED AS FAIR MEANS FEW OR NO CLOUDS BELOW
12 THOUSAND FEET.




USA.gov is the U.S. government's official web portal to all federal, state and local government web resources and services.